PERSEUS-M1

Last updated on Fri Sep 19 2025 00:03:49 GMT+0000 (Coordinated Universal Time)

1 40039U 14033AF 25261.22806426 .00002183 00000+0 20947-3 0 9991 2 40039 97.9325 196.6744 0013414 116.0457 244.2145 14.94103798610002
UTC large
Height (km)
Speed (km/s)
/
Latitude / Longitude
Inclination (degrees)
Orbital Period (minutes)
Azimuth
Elevation
Range (km)
Doppler Factor

Next 0 passes for location: London (51.5072 / 0.1276)

Sorry there are no passes over London.